Вернуться в каталог

FENGYUN 1C DEB

АктивенSSO
NORAD 30202·DEBRIS·🇨🇳 China

Запущен May 10, 1999 с Taiyuan Satellite Launch Center

Loading…

Ближайшие Пролёты (ближайшие 24 часа)

TLE

СвежийSource: Space-Track

Эпоха: Sep 14, 2026, 07:06 UTC

1 30202U 99025VK  26257.29618320  .00005395  00000-0  12016-2 0  9999
2 30202  98.6447   8.7927 0034545 294.0358  65.7226 14.56972584 22937

Отслеживайте FENGYUN 1C DEB в реальном времени с AllMySat

Download on the App Store